Weather History for Silver Bay, MN

Change the Weather History Date:

Saturday, May 10, 2014

  Actual Average Record
Temperature  
Mean Temperature 50 °F -  
Max Temperature 64 °F 56 °F 89 °F (2007)
Min Temperature 35 °F 33 °F 23 °F (1998)
Degree Days  
Heating Degree Days 16    
Moisture  
Dew Point 36 °F    
Average Humidity 62    
Maximum Humidity 100    
Minimum Humidity 34    
Precipitation  
Precipitation 0.00 in - - ()
Sea Level Pressure  
Sea Level Pressure 29.79 in    
Wind  
Wind Speed 3 mph (SSW)    
Max Wind Speed 10 mph    
Max Gust Speed -    
Visibility 10 miles    
Events      
Averages and records for this station are not official NWS values.
T = Trace of Precipitation, MM = Missing Value Source: NWS Daily Summary

Daily Weather History Graph

Daily Weather History Graph

Search for Another Location

Airport:

Trip Planner

Search our weather history database for the weather conditions in past years. The results will help you decide how hot, cold, wet, or windy it might be!

Date:

Astronomy

May. 10, 2014 Rise Set
Actual Time 5:35 AM CDT 8:28 PM CDT
Civil Twilight 5:00 AM CDT 9:04 PM CDT
Nautical Twilight 4:15 AM CDT 9:50 PM CDT
Astronomical Twilight 3:21 AM CDT 10:44 PM CDT
Moon 4:08 PM CDT (5/10) 3:27 AM CDT (5/10)
Length of Visible Light 16h 04m
Length of Day
14h 52m
Waxing Gibbous, 82% of the Moon is Illuminated
May 10
Waxing Gibbous
May 14
Full
May 21
Last Quarter
May 28
New
Jun 5
First Quarter

Hourly Weather History & Observations

Time (CDT) Temp. Windchill Dew Point Humidity Pressure Visibility Wind Dir Wind Speed Gust Speed Precip Events Conditions
12:14 AM 41.0 °F 39.0 °F 37.4 °F 87% 29.67 in 10.0 mi WSW 3.5 mph - N/A   Clear
12:33 AM 41.0 °F 38.0 °F 37.4 °F 87% 29.67 in 10.0 mi SW 4.6 mph - N/A   Clear
12:53 AM 39.2 °F - 37.4 °F 93% 29.67 in 10.0 mi Calm Calm - N/A   Clear
1:14 AM 39.2 °F 37.0 °F 37.4 °F 93% 29.68 in 10.0 mi WSW 3.5 mph - N/A   Clear
1:33 AM 39.2 °F - 37.4 °F 93% 29.69 in 10.0 mi Calm Calm - N/A   Clear
1:53 AM 39.2 °F 37.0 °F 37.4 °F 93% 29.68 in 10.0 mi WSW 3.5 mph - N/A   Clear
2:14 AM 39.2 °F - 37.4 °F 93% 29.69 in 10.0 mi Calm Calm - N/A   Clear
2:34 AM 37.4 °F 34.9 °F 37.4 °F 100% 29.69 in 10.0 mi West 3.5 mph - N/A   Clear
2:54 AM 37.4 °F 34.9 °F 37.4 °F 100% 29.70 in 10.0 mi West 3.5 mph - N/A   Clear
3:13 AM - - - N/A% 29.70 in 10.0 mi West 3.5 mph - N/A   Clear
3:35 AM 37.4 °F - 37.4 °F 100% 29.70 in - Calm Calm - N/A   Clear
3:53 AM 37.4 °F - 37.4 °F 100% 29.71 in - Calm Calm - N/A   Clear
4:13 AM 37.4 °F 34.9 °F - N/A% - 10.0 mi WSW 3.5 mph - N/A   Clear
4:34 AM 37.4 °F - 35.6 °F 93% - 10.0 mi Calm Calm - N/A   Clear
4:54 AM 37.4 °F - 35.6 °F 93% 29.72 in 10.0 mi Calm Calm - N/A   Unknown
5:13 AM 37.4 °F 34.9 °F 33.8 °F 87% 29.73 in 10.0 mi WSW 3.5 mph - N/A   Clear
5:33 AM 35.6 °F - 33.8 °F 93% 29.74 in 10.0 mi Calm Calm - N/A   Clear
5:41 AM 35.6 °F - 33.8 °F 93% 29.74 in 10.0 mi West 1.2 mph - N/A   Clear
5:45 AM 35.6 °F 32.8 °F 33.8 °F 93% 29.74 in 10.0 mi West 3.5 mph - N/A   Clear
6:14 AM 37.4 °F - 33.8 °F 87% 29.75 in 10.0 mi Calm Calm - N/A   Clear
6:33 AM 39.2 °F - 33.8 °F 81% - 10.0 mi Calm Calm - N/A   Clear
6:54 AM 39.2 °F 37.0 °F - N/A% - 10.0 mi WSW 3.5 mph - N/A   Clear
7:13 AM 41.0 °F - 33.8 °F 76% 29.79 in 10.0 mi North - - N/A   Clear
7:34 AM 42.8 °F 39.3 °F 35.6 °F 76% 29.80 in 10.0 mi SW 5.8 mph - N/A   Clear
7:53 AM 44.6 °F 42.2 °F 35.6 °F 71% 29.81 in 10.0 mi SW 4.6 mph - N/A   Clear
8:13 AM 46.4 °F 44.3 °F 35.6 °F 66% 29.82 in 10.0 mi SW 4.6 mph - N/A   Clear
8:33 AM 48.2 °F - 35.6 °F 62% 29.81 in 10.0 mi WSW 3.5 mph - N/A   Clear
8:54 AM 51.8 °F - 37.4 °F 58% 29.82 in 10.0 mi WSW 4.6 mph - N/A   Clear
9:13 AM 53.6 °F - 37.4 °F 54% 29.82 in 10.0 mi SW 3.5 mph - N/A   Clear
9:33 AM 53.6 °F - 37.4 °F 54% 29.82 in 10.0 mi WSW 3.5 mph - N/A   Clear
9:53 AM 55.4 °F - 37.4 °F 51% 29.83 in 10.0 mi West 3.5 mph - N/A   Clear
10:13 AM 57.2 °F - 37.4 °F 48% 29.83 in 10.0 mi WSW 3.5 mph - N/A   Clear
10:34 AM 57.2 °F - 37.4 °F 48% 29.83 in 10.0 mi West 3.5 mph - N/A   Clear
10:53 AM 59.0 °F - 35.6 °F 42% 29.83 in 10.0 mi SSW 4.6 mph - N/A   Clear
11:14 AM 60.8 °F - 35.6 °F 39% 29.83 in 10.0 mi West 4.6 mph - N/A   Clear
11:33 AM 60.8 °F - 33.8 °F 36% 29.83 in 10.0 mi SW 5.8 mph - N/A   Clear
11:54 AM 62.6 °F - 35.6 °F 37% 29.83 in 10.0 mi Calm Calm - N/A   Clear
12:13 PM 60.8 °F - 35.6 °F 39% 29.83 in 10.0 mi SSW 5.8 mph - N/A   Clear
12:33 PM 60.8 °F - 39.2 °F 45% 29.82 in 10.0 mi South 10.4 mph - N/A   Clear
12:54 PM 60.8 °F - 39.2 °F 45% 29.82 in 10.0 mi SSE 9.2 mph - N/A   Clear
1:14 PM 60.8 °F - 39.2 °F 45% 29.82 in 10.0 mi SSE 8.1 mph - N/A   Clear
1:33 PM 60.8 °F - 39.2 °F 45% 29.82 in 10.0 mi South 9.2 mph - N/A   Clear
1:54 PM 60.8 °F - 41.0 °F 48% 29.82 in 10.0 mi SSE 10.4 mph - N/A   Clear
2:14 PM 60.8 °F - 39.2 °F 45% 29.82 in 10.0 mi SSE 10.4 mph - N/A   Clear
2:33 PM 62.6 °F - 39.2 °F 42% 29.83 in 10.0 mi South 10.4 mph - N/A   Clear
2:55 PM 62.6 °F - 37.4 °F 39% 29.83 in 10.0 mi South 10.4 mph - N/A   Clear
3:13 PM 62.6 °F - 37.4 °F 39% 29.82 in 10.0 mi SSE 10.4 mph - N/A   Clear
3:34 PM 62.6 °F - 37.4 °F 39% 29.82 in 10.0 mi SSE 10.4 mph - N/A   Clear
3:53 PM 62.6 °F - 37.4 °F 39% 29.82 in 10.0 mi SE 8.1 mph - N/A   Clear
4:15 PM 62.6 °F - 37.4 °F 39% 29.82 in 10.0 mi SSE 8.1 mph - N/A   Clear
4:33 PM 62.6 °F - 39.2 °F 42% 29.82 in 10.0 mi SSE 8.1 mph - N/A   Clear
4:54 PM 64.4 °F - 37.4 °F 37% 29.82 in 10.0 mi SSE 6.9 mph - N/A   Clear
5:13 PM 64.4 °F - 37.4 °F 37% 29.81 in 10.0 mi South 3.5 mph - N/A   Clear
5:33 PM 64.4 °F - 37.4 °F 37% 29.81 in 10.0 mi SSE 5.8 mph - N/A   Clear
5:53 PM 64.4 °F - 37.4 °F 37% 29.81 in 10.0 mi SE 8.1 mph - N/A   Clear
6:13 PM 62.6 °F - 35.6 °F 37% 29.82 in 10.0 mi SE 5.8 mph - N/A   Clear
6:34 PM 60.8 °F - 32.0 °F 34% 29.82 in 10.0 mi Calm Calm - N/A   Clear
6:53 PM 60.8 °F - 32.0 °F 34% 29.82 in 10.0 mi Calm Calm - N/A   Clear
7:14 PM 60.8 °F - 32.0 °F 34% 29.82 in 10.0 mi Calm Calm - N/A   Clear
7:34 PM 59.0 °F - 33.8 °F 39% 29.82 in 10.0 mi Calm Calm - N/A   Clear
7:54 PM 55.4 °F - 32.0 °F 41% 29.82 in 10.0 mi Calm Calm - N/A   Clear
8:13 PM 55.4 °F - 28.4 °F 36% 29.82 in 10.0 mi Calm Calm - N/A   Clear
8:34 PM 51.8 °F - 28.4 °F 41% 29.82 in 10.0 mi Calm Calm - N/A   Clear
8:54 PM 48.2 °F - 30.2 °F 50% 29.83 in 10.0 mi Calm Calm - N/A   Clear
9:14 PM 44.6 °F - 32.0 °F 61% 29.84 in 10.0 mi Calm Calm - N/A   Clear
9:34 PM 44.6 °F - 32.0 °F 61% 29.85 in 10.0 mi Calm Calm - N/A   Clear
9:54 PM 42.8 °F - 32.0 °F 66% 29.85 in 10.0 mi Calm Calm - N/A   Clear
10:14 PM 41.0 °F - 33.8 °F 76% 29.86 in 10.0 mi Calm Calm - N/A   Clear
10:33 PM 39.2 °F - 33.8 °F 81% 29.86 in 10.0 mi Calm Calm - N/A   Clear
10:54 PM 39.2 °F - 33.8 °F 81% 29.87 in 10.0 mi Calm Calm - N/A   Clear
11:13 PM 39.2 °F - 32.0 °F 75% 29.87 in 10.0 mi Calm Calm - N/A   Clear
11:53 PM 35.6 °F - 33.8 °F 93% 29.87 in 10.0 mi Calm Calm - N/A   Clear